Scottsbluff, NE

11:47 PM MST on November 11, 2019 (GMT -0700)
Heilig

Weather History for KBFF - July, 2019

Change the Weather History Date:

Tuesday, July 30, 2019

  Actual Average Record
Temperature  
Mean Temperature 75 °F -  
Max Temperature 91 °F 87 °F 104 °F (1934)
Min Temperature 59 °F 59 °F 44 °F (2009)
Cooling Degree Days 10    
Growing Degree Days 25 (Base 50)    
Moisture  
Dew Point 61 °F    
Average Humidity 61    
Maximum Humidity 90    
Minimum Humidity 35    
Precipitation  
Precipitation 0.00 in - - ()
Sea Level Pressure  
Sea Level Pressure 29.88 in    
Wind  
Wind Speed 10 mph (ESE)    
Max Wind Speed 16 mph    
Max Gust Speed 24 mph    
Visibility 10 miles    
Events      
Averages and records for this station are not official NWS values.
T = Trace of Precipitation, MM = Missing Value Source: NWS Daily Summary

Daily Weather History Graph

Daily Weather History Graph

Search for Another Location

Airport or City:

Astronomy

Jul. 30, 2019 Rise Set
Actual Time 5:46 AM MDT 8:15 PM MDT
Civil Twilight 5:14 AM MDT 8:46 PM MDT
Nautical Twilight 4:34 AM MDT 9:25 PM MDT
Astronomical Twilight 3:50 AM MDT 10:09 PM MDT
Moon 3:55 AM MDT (7/30) 7:23 PM MDT (7/30)
Length of Visible Light 15h 32m
Length of Day
14h 28m
Waning Crescent, 3% of the Moon is Illuminated
Jul 30
Waning Crescent
Jul 31
New
Aug 7
First Quarter
Aug 15
Full
Aug 23
Last Quarter

Hourly Weather History & Observations

Time (MDT) Temp. Heat Index Dew Point Humidity Pressure Visibility Wind Dir Wind Speed Gust Speed Precip Events Conditions
12:53 AM 66.0 °F - 55.0 °F 68% 29.99 in 10.0 mi ENE 11.5 mph - N/A   Clear
1:53 AM 64.9 °F - 54.0 °F 68% 29.97 in 10.0 mi East 11.5 mph - N/A   Clear
2:53 AM 64.0 °F - 54.0 °F 70% 29.92 in 10.0 mi ESE 12.7 mph - N/A   Clear
3:53 AM 63.0 °F - 55.0 °F 75% 29.90 in 10.0 mi ESE 12.7 mph - N/A   Clear
4:53 AM 60.1 °F - 55.9 °F 86% 29.91 in 10.0 mi East 6.9 mph - N/A   Clear
5:53 AM 59.0 °F - 55.9 °F 90% 29.91 in 10.0 mi ESE 9.2 mph - N/A   Clear
6:53 AM 61.0 °F - 57.0 °F 87% 29.93 in 10.0 mi East 4.6 mph - N/A   Clear
7:53 AM 62.1 °F - 57.9 °F 86% 29.94 in 10.0 mi ESE 9.2 mph - N/A   Clear
8:53 AM 70.0 °F - 60.1 °F 71% 29.93 in 10.0 mi Variable 3.5 mph - N/A   Clear
9:53 AM 72.0 °F - 61.0 °F 68% 29.93 in 10.0 mi Calm Calm - N/A   Clear
10:53 AM 79.0 °F - 62.1 °F 56% 29.89 in 10.0 mi ENE 3.5 mph - N/A   Clear
11:53 AM 81.0 °F 81.9 °F 62.1 °F 52% 29.90 in 10.0 mi Variable 4.6 mph - N/A   Clear
12:53 PM 84.9 °F 85.4 °F 62.1 °F 46% 29.88 in - ESE 8.1 mph - N/A   Clear
1:04 PM 86.0 °F 87.3 °F 64.0 °F 48% 30.03 in 10.0 mi SE 9.2 mph - N/A   Partly Cloudy
1:53 PM 88.0 °F 89.3 °F 64.0 °F 45% 29.86 in 10.0 mi SE 10.4 mph - N/A   Clear
2:53 PM 89.1 °F 89.3 °F 62.1 °F 40% 29.85 in 10.0 mi SE 12.7 mph - N/A   Clear
3:53 PM 90.0 °F 90.0 °F 61.0 °F 38% 29.83 in 10.0 mi ESE 12.7 mph - N/A   Clear
4:53 PM 89.1 °F 89.3 °F 62.1 °F 40% 29.82 in 10.0 mi East 13.8 mph - N/A   Clear
5:53 PM 88.0 °F 89.3 °F 64.0 °F 45% 29.81 in 10.0 mi ESE 13.8 mph - N/A   Clear
6:53 PM 84.9 °F 86.1 °F 64.0 °F 49% 29.80 in 10.0 mi ESE 13.8 mph - N/A   Clear
7:53 PM 82.0 °F 83.4 °F 64.0 °F 54% 29.82 in 10.0 mi East 13.8 mph - N/A   Clear
8:53 PM 78.1 °F - 64.9 °F 64% 29.82 in 10.0 mi ESE 9.2 mph - N/A   Clear
9:53 PM 75.9 °F - 63.0 °F 64% 29.86 in 10.0 mi East 8.1 mph - N/A   Clear
10:53 PM 75.9 °F - 64.0 °F 67% 29.84 in 10.0 mi ESE 15.0 mph - N/A   Clear
11:53 PM 73.9 °F - 64.9 °F 73% 29.83 in 10.0 mi ESE 16.1 mph 24.2 mph N/A   Clear